الكل
Leinster Airport (Leinster, Western Australia) LER حالة الطقس
|
Leinster, Western Australia (LER / YLST)
سماء صافية
رياح خفيفة |
|
14 °C |
توقع منطقة محطة المطارLER
| Date | Time (AWST) | Flight Rules | Wind Dir. | Speed | Type | Height AGL (ft) | Visibility | Remarks | ||||||
|---|---|---|---|---|---|---|---|---|---|---|---|---|---|---|
محفوظات أحدث تقرير روتيني عن حالة الطقس من أجل الطيران (الميتار )LER
| Date | Time (AWST) | Flight Rules | Wind Dir. | Speed | Type | Height AGL (ft) | Visibility | Temp (°C) | Temp (°F) | Dew Point (°C) | Dew Point (°F) | Rel. Humid. | Pressure | Density Altitude | Remarks |
|---|---|---|---|---|---|---|---|---|---|---|---|---|---|---|---|
| 03-سبت | 01:00 | VFR | 170° | 8 kt | 10000 meters | 14° | 57° | 5° | 41° | 55% | 1019 mb | 1,578 ft | |||
| 03-سبت | 00:00 | VFR | 170° | 4 kt | 10000 meters | 15° | 59° | 6° | 42° | 55% | 1019 mb | 1,698 ft | |||
| 02-سبت | 23:00 | VFR | 180° | 6 kt | 10000 meters | 16° | 60° | 6° | 42° | 51% | 1019 mb | 1,818 ft | |||
| 02-سبت | 22:00 | VFR | 190° | 7 kt | 10000 meters | 17° | 62° | 7° | 44° | 52% | 1019 mb | 1,938 ft | |||
| 02-سبت | 21:00 | VFR | 170° | 7 kt | 10000 meters | 18° | 64° | 7° | 44° | 49% | 1019 mb | 2,058 ft | |||
| 02-سبت | 20:00 | VFR | 180° | 7 kt | 10000 meters | 19° | 66° | 7° | 44° | 46% | 1019 mb | 2,178 ft | |||
| 02-سبت | 19:00 | VFR | 200° | 7 kt | 10000 meters | 20° | 68° | 7° | 44° | 43% | 1019 mb | 2,298 ft | |||
| 02-سبت | 18:00 | VFR | 210° | 10 kt | 10000 meters | 22° | 71° | 7° | 44° | 38% | 1018 mb | 2,567 ft | |||
| 02-سبت | 17:00 | VFR | 210° | 8 kt | 10000 meters | 23° | 73° | 7° | 44° | 36% | 1017 mb | 2,717 ft | |||
| 02-سبت | 16:00 | VFR | 230° | 9 kt | 10000 meters | 24° | 75° | 6° | 42° | 31% | 1017 mb | 2,837 ft | |||
| 02-سبت | 15:00 | VFR | 250° | 10 kt | 10000 meters | 24° | 75° | 6° | 42° | 31% | 1017 mb | 2,837 ft | |||
| 02-سبت | 14:00 | VFR | 270° | 8 kt | 10000 meters | 24° | 75° | 7° | 44° | 34% | 1018 mb | 2,807 ft | |||
| 02-سبت | 13:00 | VFR | 230° | 7 kt | 10000 meters | 23° | 73° | 7° | 44° | 36% | 1018 mb | 2,687 ft | |||
| 02-سبت | 12:00 | VFR | 230° | 7 kt | 10000 meters | 22° | 71° | 9° | 48° | 43% | 1020 mb | 2,508 ft | |||
| 02-سبت | 11:00 | VFR | 210° | 5 kt | 10000 meters | 20° | 68° | 10° | 50° | 53% | 1020 mb | 2,268 ft | |||
| 02-سبت | 10:00 | VFR | 200° | 7 kt | 10000 meters | 18° | 64° | 10° | 50° | 59% | 1021 mb | 1,998 ft | |||
| 02-سبت | 09:00 | VFR | 190° | 7 kt | 10000 meters | 17° | 62° | 10° | 50° | 63% | 1021 mb | 1,878 ft | |||
| 02-سبت | 08:00 | VFR | 190° | 9 kt | 10000 meters | 14° | 57° | 10° | 50° | 77% | 1021 mb | 1,518 ft | |||
| 02-سبت | 07:00 | VFR | 200° | 6 kt | 10000 meters | 12° | 53° | 10° | 50° | 88% | 1020 mb | 1,308 ft | |||
| 02-سبت | 06:00 | VFR | 190° | 4 kt | 10000 meters | 12° | 53° | 10° | 50° | 88% | 1020 mb | 1,308 ft | |||
| 02-سبت | 05:00 | VFR | 210° | 3 kt | 10000 meters | 12° | 53° | 10° | 50° | 88% | 1020 mb | 1,308 ft | |||
| 02-سبت | 04:00 | VFR | 220° | 3 kt | 10000 meters | 12° | 53° | 9° | 48° | 82% | 1019 mb | 1,338 ft | |||
| 02-سبت | 03:00 | VFR | Calm | 10000 meters | 11° | 51° | 8° | 46° | 82% | 1019 mb | 1,218 ft | ||||
| 02-سبت | 02:00 | VFR | Calm | 10000 meters | 12° | 53° | 8° | 46° | 76% | 1019 mb | 1,338 ft |
تسجيل الدخول
| مُتصفحك غير مُدعَّم. قم بترقية متصفحك |
